Powrót do katalogu

FREGAT DEB

LostUNKNOWN
NORAD 46012·DEBRIS·🇷🇺 Russia

Wystrzelony Jul 18, 2011 z Baikonur Cosmodrome

Loading…

Następne Przeloty (najbliższe 24 godziny)

TLE

NieaktualneSource: Space-Track

Epoka: Aug 24, 2020, 03:00 UTC

1 46012U 11037HP  20237.12524856 -.00038233  00000-0 -44255-1 0  9994
2 46012  51.3841 146.2903 1200797 241.4485 106.0401 12.06927699  3125

Śledź FREGAT DEB w czasie rzeczywistym z AllMySat

Download on the App Store